Regional Weather Roundup
Issued by NWS Upton, NY

Current Version | Previous Version | Graphics & Text | Print | Product List | Glossary Off
Versions: 1 2 3 4 5 6 7 8 9 10 11 12 13 14 15 16 17 18 19 20 21 22 23 24 25 26 27 28 29 30 31 32 33 34 35 36 37 38 39 40 41 42 43 44 45 46 47 48 49 50

000
ASUS41 KOKX 010708
RWROKX

REGIONAL WEATHER ROUNDUP
NATIONAL WEATHER SERVICE NEW YORK NY
200 AM EST WED MAR 01 2017

NOTE: "FAIR" INDICATES FEW OR NO CLOUDS BELOW 12,000 FEET WITH NO
SIGNIFICANT WEATHER AND/OR OBSTRUCTIONS TO VISIBILITY.

NYZ071-072-176-178-NJZ106-104-010800-
NEW YORK CITY METRO AREA

CITY           SKY/WX    TMP DP  RH WIND       PRES   REMARKS
Central Park   CLOUDY    54  50  86 S5        29.95F
Wall St Helipt CLOUDY    54  51  90 N5        29.94F
LaGuardia APRT CLOUDY    54  49  83 S6        29.94F
Kennedy INTL   FOG       50  50 100 S15       29.96F VSB 1/2
Breezy Point     N/A     46 N/A N/A S8          N/A
Newark/Liberty CLOUDY    52  48  86 E5        29.92F
Teterboro      CLOUDY    55  50  83 CALM      29.92F
$$

NYZ177-179-078>081-010800-
LONG ISLAND NEW YORK

CITY           SKY/WX    TMP DP  RH WIND       PRES   REMARKS
Jones Beach      N/A     46 N/A N/A SW7         N/A
Matinecock PT  NOT AVBL
Farmingdale    CLOUDY    51  50  96 SW8       29.96F
MacArthur/ISP  CLOUDY    51  51 100 S12       29.95F
Shirley        CLOUDY    50  50 100 S9        29.97F
Westhampton    LGT RAIN  51  50  96 S9G21     29.98F
Southampton    NOT AVBL
Bridgehampton  NOT AVBL
East Hampton   RAIN      50  49  97 S6        29.97F
Montauk          N/A     48  47  96 S8        29.98F
$$

NYZ052-065-067-010800-
HUDSON VALLEY

CITY           SKY/WX    TMP DP  RH WIND       PRES   REMARKS
White Plains   FOG       50  49  96 S9        29.92F VSB 1
Newburgh       CLOUDY    54  52  94 CALM      29.92F
Montgomery     CLOUDY    51  48  89 S6        29.88F
Poughkeepsie   CLOUDY    52  48  86 SE6       29.90F
Albany         CLOUDY    54  47  77 S10       29.86F
$$

NJZ001-105-106-008-010-013-015-019>022-104-010800-
NEW JERSEY

CITY           SKY/WX    TMP DP  RH WIND       PRES   REMARKS
Newark/Liberty CLOUDY    52  48  86 E5        29.92F
Teterboro      CLOUDY    55  50  83 CALM      29.92F
Caldwell       CLOUDY    52  48  86 CALM      29.91F
Somerville     LGT RAIN  52  49  89 S5        29.88F
Linden         NOT AVBL
Sussex         CLOUDY    55  51  86 CALM      29.89F
Andover          N/A     55  51  86 VRB5      29.88F
Trenton        CLOUDY    57  56  96 S6        29.91F
Millville      CLOUDY    55  55 100 VRB6      29.95F
Atlantic City  LGT RAIN  54  52  93 S9        29.95F FOG
Wrightstown    MOCLDY    55  55 100 S7        29.89F
Toms River     LGT RAIN  55  54  96 S8        29.93F
Belmar         CLOUDY    55  54  96 S7        29.93F
$$

PAZ047>061-062-071-010800-
EASTERN PENNSYLVANIA

CITY           SKY/WX    TMP DP  RH WIND       PRES   REMARKS
Philadelphia   CLOUDY    57  55  93 SW9       29.94F
Allentown      CLOUDY    57  52  83 W7        29.90F
Scranton       CLOUDY    57  51  80 SW8       29.86F
$$

CTZ002-004>006-009-010-012-RIZ004-006-007-MAZ004-011-015-010800-
SOUTHERN NEW ENGLAND
 IN CT

CITY           SKY/WX    TMP DP  RH WIND       PRES   REMARKS
Bradley INTL   FOG       49  49 100 S6        29.95F VSB 1/2
Hartford       CLOUDY    50  49  96 S6        29.96F
Danbury        CLOUDY    50  49  96 S6        29.94F
Wtrbury/Oxford CLOUDY    50  46  87 S6        29.95F VSB 3/4
Bridgeport     CLOUDY    45  43  93 E3        29.96F FOG
Meriden        LGT RAIN  50  48  93 S5        29.95F FOG
New Haven      CLOUDY    47  47 100 E5        29.96F FOG
Chester        FOG       46  46 100 CALM      29.96F VSB<1/4
Groton         FOG       47  47 100 E5        29.98F VSB 3/4
Wilimantic     FOG       49  49 100 S5        29.98F VSB 1/4

 IN RI

CITY           SKY/WX    TMP DP  RH WIND       PRES   REMARKS
Providence     FOG       45  44  97 S5        30.00F VSB 1/4
Block Island   CLOUDY    48  47  96 S12       29.99F
Westerly       FOG       48  45  89 CALM      29.99F VSB 1/2
 IN MA

CITY           SKY/WX    TMP DP  RH WIND       PRES   REMARKS
Boston         CLOUDY    48  48 100 S9        29.98F
Worcester      FOG       46  45  96 SW9       29.96F VSB 1/4
Westfield      FOG       49  49 100 S7        29.94F VSB 1/2
Provincetown   CLOUDY    46  45  96 S14       30.00F
Nantucket      FOG       46  44  93 S13       30.03F VSB 1/2
$$

ANZ330-335-338-340-345-350-353-355-010800-
COASTAL MARINE OBSERVATIONS


STATION/POSITION TIME  SKY/WX   TEMP    WIND        PRES    VSBY  WAVE
                                AIR SEA DIR/SP/G                  HT/PER
                 (UTC)          (F)     (DEG/KT/KT) (MB)    (MI)  (FT/S)
NY HARB ENTRANCE 0550            48 43  190/ 16/ 19 1015.3          2/ 7
20 S FIRE ISLAND 0550            49 42  180/ 17/ 21 1015.0          3/ 8
GREAT SOUTH BAY  NOT AVBL
23 SSW MONTAUK P 0550            49 46              1016.9          2/ 7
15 E BARNEGAT LI 0630               44                N/A           3/ 7
HUDSON CANYON    0550            51 47  140/  4/  6 1017.6          4/ 7
KINGS POINT      0642            51 41              1014.0
EXECUTION ROCKS  NOT AVBL
CENTRAL LI SOUND 0630            44      90/  4/  4   N/A           0
EASTERN LI SOUND NOT AVBL
ROBBINS REEF     0642            50     140/  5/  6 1014.0
$$


>>>>>>>>>>>>>>>>>>>>>>>>>>>> KEY <<<<<<<<<<<<<<<<<<<<<<<<<<<
>                                                          <
>     SKY/WX - Sky Condition/Present Weather               <
>     TMP    - Temperature in Fahrenheit                   <
>     DP     - Dew Point in Fahrenheit                     <
>     RH     - Relative Humidity in Percent                <
>     WIND   - Direction (from) and Speed in MPH           <
>     PRES   - Mean Sea Level Pressure (inches of Hg)      <
>     WCI    - Wind Chill Index                            <
>     VSB    - VISIBILITY IN MILES                         <
>     HX     - HEAT INDEX                                  <
>     TC     - TEMPERATURE IN CELSIUS                      <
>     VRB    - VARIABLE WIND DIRECTION                     <
>                                                          <
>>>>>>>>>>>>>>>>>>>>>>>>>>>> KEY <<<<<<<<<<<<<<<<<<<<<<<<<<<



USA.gov is the U.S. government's official web portal to all federal, state and local government web resources and services.